CW4279 Weather Reports


Display with metric or nautical units.
time (UTC)temp
F
wind
direction
speed
MPH
gust
MPH
rain 1hr
in
rain 24hr
in
rain mn
in
humidity
%
barometer
mb
20260509005400 65 117 0.0 1.0 0.00 0.00 0.00 28 998.5
20260509004900 65 111 0.0 2.0 0.00 0.00 0.00 28 998.2
20260509004357 66 132 0.0 1.0 0.00 0.00 0.00 27 998.5
20260509003854 66 175 1.0 2.0 0.00 0.00 0.00 26 998.2
20260509003352 66 145 1.0 2.0 0.00 0.00 0.00 29 998.4
20260509002849 66 154 3.0 3.0 0.00 0.00 0.00 29 998.3
20260509002347 67 78 1.0 2.0 0.00 0.00 0.00 28 998.6
20260509001844 67 141 2.0 6.0 0.00 0.00 0.00 27 998.4
20260509001340 67 121 1.0 2.0 0.00 0.00 0.00 27 998.4
20260509000837 67 112 2.0 3.0 0.00 0.00 0.00 27 998.2
20260509000335 67 302 2.0 3.0 0.00 0.00 0.00 27 998.5
20260508235831 67 142 0.0 1.0 0.00 0.00 0.00 27 998.3
20260508235328 67 108 2.0 7.0 0.00 0.00 0.00 26 998.7
20260508234825 67 111 0.0 1.0 0.00 0.00 0.00 27 998.5
20260508234321 68 50 1.0 2.0 0.00 0.00 0.00 25 998.7
20260508233820 68 158 0.0 1.0 0.00 0.00 0.00 27 998.7
20260508233319 68 132 1.0 6.0 0.00 0.00 0.00 25 998.8
20260508232815 68 115 5.0 7.0 0.00 0.00 0.00 26 998.7
20260508232312 69 101 3.0 6.0 0.00 0.00 0.00 25 998.7
20260508231811 68 102 0.0 2.0 0.00 0.00 0.00 26 998.9
20260508231306 69 28 2.0 5.0 0.00 0.00 0.00 25 999.0
20260508230803 69 159 1.0 3.0 0.00 0.00 0.00 27 999.2
20260508230259 69 76 1.0 2.0 0.00 0.00 0.00 27 999.2
20260508225757 69 140 0.0 1.0 0.00 0.00 0.00 27 999.1
20260508225253 68 116 1.0 2.0 0.00 0.00 0.00 26 999.0
20260508224752 68 145 0.0 3.0 0.00 0.00 0.00 27 999.2
20260508224249 70 157 1.0 2.0 0.00 0.00 0.00 25 999.2
20260508223746 69 84 2.0 2.0 0.00 0.00 0.00 26 999.2
20260508223243 69 151 2.0 5.0 0.00 0.00 0.00 25 999.2
20260508222741 68 70 1.0 2.0 0.00 0.00 0.00 26 999.4
20260508222238 69 96 1.0 5.0 0.00 0.00 0.00 25 999.4
20260508221734 71 158 1.0 3.0 0.00 0.00 0.00 26 999.5
20260508221230 70 111 2.0 3.0 0.00 0.00 0.00 25 999.3
20260508220726 68 146 1.0 2.0 0.00 0.00 0.00 26 999.6
20260508220223 68 148 1.0 5.0 0.00 0.00 0.00 25 999.8
20260508215720 70 94 1.0 6.0 0.00 0.00 0.00 24 999.7
20260508215216 71 90 5.0 8.0 0.00 0.00 0.00 24 999.6
20260508214713 68 312 1.0 5.0 0.00 0.00 0.00 27 999.9
20260508214211 70 108 1.0 3.0 0.00 0.00 0.00 25 1000.0
20260508213707 70 29 5.0 7.0 0.00 0.00 0.00 24 1000.1
20260508213203 69 31 2.0 9.0 0.00 0.00 0.00 25 1000.0
20260508212700 69 170 2.0 5.0 0.00 0.00 0.00 26 1000.0
20260508212157 70 126 3.0 9.0 0.00 0.00 0.00 24 1000.1
20260508211652 70 334 5.0 8.0 0.00 0.00 0.00 23 1000.2
20260508211148 70 73 2.0 6.0 0.00 0.00 0.00 25 1000.1
20260508210645 71 60 3.0 8.0 0.00 0.00 0.00 24 1000.3
20260508210143 71 129 2.0 3.0 0.00 0.00 0.00 25 1000.6
20260508205640 71 115 1.0 2.0 0.00 0.00 0.00 25 1000.4
20260508205136 69 113 1.0 6.0 0.00 0.00 0.00 25 1000.4
20260508204632 69 307 3.0 9.0 0.00 0.00 0.00 26 1000.6
20260508204128 67 154 2.0 6.0 0.00 0.00 0.00 26 1000.6
20260508203625 70 193 3.0 3.0 0.00 0.00 0.00 24 1000.7
20260508203121 69 280 2.0 7.0 0.00 0.00 0.00 24 1000.6
20260508202617 69 136 3.0 9.0 0.00 0.00 0.00 25 1001.1
20260508202115 68 189 6.0 9.0 0.00 0.00 0.00 24 1001.1
20260508201611 68 248 4.0 10.0 0.00 0.00 0.00 25 1001.2
20260508201108 69 268 5.0 7.0 0.00 0.00 0.00 25 1001.1
20260508200605 67 203 5.0 8.0 0.00 0.00 0.00 26 1001.4
20260508200101 65 133 1.0 2.0 0.00 0.00 0.00 27 1001.4
20260508195557 66 277 6.0 7.0 0.00 0.00 0.00 26 1001.4
20260508195054 66 115 1.0 5.0 0.00 0.00 0.00 27 1001.4
20260508194550 66 147 1.0 5.0 0.00 0.00 0.00 27 1001.3
20260508194048 66 89 2.0 3.0 0.00 0.00 0.00 28 1001.7
20260508193544 68 117 2.0 5.0 0.00 0.00 0.00 27 1001.6
20260508193041 68 159 2.0 6.0 0.00 0.00 0.00 26 1001.7
20260508192538 69 185 5.0 7.0 0.00 0.00 0.00 26 1001.7
20260508192035 68 160 2.0 3.0 0.00 0.00 0.00 27 1001.5
20260508191532 67 315 6.0 7.0 0.00 0.00 0.00 27 1001.7
20260508191028 66 137 0.0 5.0 0.00 0.00 0.00 27 1001.6
20260508190526 68 46 4.0 7.0 0.00 0.00 0.00 26 1001.7
20260508190022 70 246 4.0 6.0 0.00 0.00 0.00 26 1001.8
20260508185519 68 287 4.0 5.0 0.00 0.00 0.00 26 1001.8
20260508185017 68 134 3.0 6.0 0.00 0.00 0.00 27 1002.0
20260508184514 66 125 3.0 6.0 0.00 0.00 0.00 28 1002.2
20260508184011 67 81 3.0 7.0 0.00 0.00 0.00 28 1001.9
20260508183507 68 50 1.0 5.0 0.00 0.00 0.00 26 1002.4
20260508183003 69 245 4.0 6.0 0.00 0.00 0.00 25 1002.2
20260508182500 68 259 1.0 6.0 0.00 0.00 0.00 29 1002.5
20260508181955 67 135 0.0 3.0 0.00 0.00 0.00 30 1002.4
20260508181452 66 130 1.0 3.0 0.00 0.00 0.00 28 1002.7
20260508180950 66 130 1.0 5.0 0.00 0.00 0.00 27 1002.7
20260508180446 66 138 1.0 3.0 0.00 0.00 0.00 30 1002.6
20260508175942 67 202 3.0 5.0 0.00 0.00 0.00 27 1002.7
20260508175438 67 159 4.0 6.0 0.00 0.00 0.00 28 1002.6
20260508174937 67 137 2.0 3.0 0.00 0.00 0.00 28 1002.8
20260508174434 66 86 1.0 3.0 0.00 0.00 0.00 29 1003.0
20260508173931 66 135 1.0 3.0 0.00 0.00 0.00 29 1003.1
20260508173428 65 98 1.0 5.0 0.00 0.00 0.00 30 1003.2
20260508172923 66 78 2.0 3.0 0.00 0.00 0.00 32 1003.2
20260508172421 65 155 2.0 6.0 0.00 0.00 0.00 31 1003.4
20260508171917 64 117 0.0 3.0 0.00 0.00 0.00 31 1003.5
20260508171414 64 118 2.0 5.0 0.00 0.00 0.00 31 1003.6
20260508170910 64 141 1.0 3.0 0.00 0.00 0.00 31 1003.6
20260508170408 64 148 2.0 3.0 0.00 0.00 0.00 32 1003.8
20260508165904 63 140 2.0 2.0 0.00 0.00 0.00 31 1003.9
20260508165403 63 170 2.0 3.0 0.00 0.00 0.00 32 1003.8
20260508164858 63 161 2.0 5.0 0.00 0.00 0.00 32 1003.8
20260508164355 63 170 2.0 5.0 0.00 0.00 0.00 34 1004.0
20260508163852 63 125 1.0 2.0 0.00 0.00 0.00 31 1003.8
20260508163350 62 168 2.0 3.0 0.00 0.00 0.00 33 1004.2
20260508162845 62 177 3.0 3.0 0.00 0.00 0.00 34 1004.1
20260508162343 62 128 1.0 5.0 0.00 0.00 0.00 33 1004.1
20260508161840 62 95 1.0 1.0 0.00 0.00 0.00 34 1004.0
20260508161337 62 162 1.0 2.0 0.00 0.00 0.00 35 1004.1
20260508160834 60 137 1.0 2.0 0.00 0.00 0.00 36 1004.2
20260508160333 59 138 1.0 1.0 0.00 0.00 0.00 36 1004.3
20260508155829 58 156 1.0 2.0 0.00 0.00 0.00 38 1004.3
20260508155326 58 136 0.0 2.0 0.00 0.00 0.00 36 1004.4
20260508154823 58 139 1.0 3.0 0.00 0.00 0.00 37 1004.6
20260508154321 57 154 0.0 5.0 0.00 0.00 0.00 38 1004.6
20260508153817 57 150 0.0 1.0 0.00 0.00 0.00 38 1004.6
20260508153314 57 137 1.0 2.0 0.00 0.00 0.00 37 1004.4
20260508152810 57 128 2.0 3.0 0.00 0.00 0.00 38 1004.6
20260508152307 57 159 3.0 3.0 0.00 0.00 0.00 37 1004.8
20260508151803 57 180 0.0 3.0 0.00 0.00 0.00 38 1004.8
20260508151300 57 150 1.0 2.0 0.00 0.00 0.00 38 1004.8
20260508150756 57 241 2.0 3.0 0.00 0.00 0.00 37 1005.2
20260508150253 57 139 1.0 2.0 0.00 0.00 0.00 40 1005.0
20260508145749 56 149 0.0 1.0 0.00 0.00 0.00 38 1004.8
20260508145246 56 227 1.0 2.0 0.00 0.00 0.00 39 1005.0
20260508144742 57 147 2.0 3.0 0.00 0.00 0.00 37 1005.0
20260508144241 57 141 0.0 5.0 0.00 0.00 0.00 38 1005.1
20260508143738 58 158 1.0 2.0 0.00 0.00 0.00 37 1005.0
20260508143235 57 134 0.0 5.0 0.00 0.00 0.00 39 1005.0
20260508142731 56 153 1.0 3.0 0.00 0.00 0.00 40 1005.3
20260508142228 56 148 0.0 3.0 0.00 0.00 0.00 41 1005.2
20260508141724 56 204 2.0 3.0 0.00 0.00 0.00 42 1005.2
20260508141222 54 123 0.0 2.0 0.00 0.00 0.00 47 1005.5
20260508140719 53 141 0.0 2.0 0.00 0.00 0.00 49 1005.3
20260508140216 52 149 1.0 2.0 0.00 0.00 0.00 49 1005.5
20260508135712 52 154 1.0 2.0 0.00 0.00 0.00 49 1005.6
20260508135208 52 139 1.0 3.0 0.00 0.00 0.00 50 1005.6
20260508134704 51 148 1.0 3.0 0.00 0.00 0.00 51 1005.7
20260508134201 51 158 2.0 2.0 0.00 0.00 0.00 52 1005.8
20260508133658 49 142 1.0 2.0 0.00 0.00 0.00 55 1005.7
20260508133155 49 154 1.0 2.0 0.00 0.00 0.00 54 1005.8
20260508132653 49 167 2.0 3.0 0.00 0.00 0.00 54 1005.9
20260508132150 48 153 2.0 2.0 0.00 0.00 0.00 53 1005.8
20260508131645 48 144 1.0 3.0 0.00 0.00 0.00 54 1005.9
20260508131142 47 157 2.0 3.0 0.00 0.00 0.00 55 1005.6
20260508130639 47 159 2.0 2.0 0.00 0.00 0.00 55 1005.9
20260508130136 47 159 1.0 3.0 0.00 0.00 0.00 54 1005.8
20260508125631 47 160 2.0 2.0 0.00 0.00 0.00 56 1005.9
20260508125129 47 158 2.0 2.0 0.00 0.00 0.00 56 1005.8
20260508124627 46 162 2.0 2.0 0.00 0.00 0.00 57 1005.7
20260508124123 45 157 1.0 2.0 0.00 0.00 0.00 61 1005.9
20260508123622 44 151 1.0 1.0 0.00 0.00 0.00 63 1005.7
20260508123119 44 149 1.0 1.0 0.00 0.00 0.00 63 1005.8
20260508122615 43 147 1.0 1.0 0.00 0.00 0.00 64 1005.7
20260508122112 43 140 1.0 1.0 0.00 0.00 0.00 66 1005.7
20260508121611 42 134 1.0 1.0 0.00 0.00 0.00 68 1005.9
20260508121108 41 118 1.0 1.0 0.00 0.00 0.00 70 1005.9
20260508120605 39 118 1.0 1.0 0.00 0.00 0.00 72 1005.9
20260508120104 37 117 0.0 1.0 0.00 0.00 0.00 75 1005.8
20260508115601 34 117 0.0 0.0 0.00 0.00 0.00 82 1005.7
20260508115057 33 117 0.0 0.0 0.00 0.00 0.00 84 1005.6
20260508114555 33 117 0.0 0.0 0.00 0.00 0.00 85 1005.8
20260508114050 33 118 0.0 1.0 0.00 0.00 0.00 85 1005.7
20260508113548 33 118 0.0 0.0 0.00 0.00 0.00 85 1005.7
20260508113046 32 118 0.0 1.0 0.00 0.00 0.00 85 1005.7
20260508112542 33 119 1.0 2.0 0.00 0.00 0.00 83 1005.6
20260508112039 32 119 0.0 1.0 0.00 0.00 0.00 85 1005.6
20260508111536 32 119 0.0 0.0 0.00 0.00 0.00 85 1005.7
20260508111033 32 119 0.0 1.0 0.00 0.00 0.00 86 1005.7
20260508110531 32 119 0.0 0.0 0.00 0.00 0.00 86 1005.8
20260508110026 32 119 0.0 0.0 0.00 0.00 0.00 85 1005.7
20260508105521 32 119 0.0 1.0 0.00 0.00 0.00 87 1005.6
20260508105019 31 119 0.0 0.0 0.00 0.00 0.00 87 1005.6
20260508104517 31 119 0.0 0.0 0.00 0.00 0.00 87 1005.8
20260508104013 31 119 0.0 1.0 0.00 0.00 0.00 86 1005.6
20260508103510 32 119 0.0 0.0 0.00 0.00 0.00 86 1005.8
20260508103008 31 119 0.0 1.0 0.00 0.00 0.00 87 1005.6
20260508102505 32 118 0.0 1.0 0.00 0.00 0.00 87 1005.8
20260508102003 31 119 0.0 0.0 0.00 0.00 0.00 86 1005.9
20260508101500 32 119 0.0 0.0 0.00 0.00 0.00 85 1005.7
20260508100956 33 119 1.0 1.0 0.00 0.00 0.00 84 1005.9
20260508100455 32 118 0.0 0.0 0.00 0.00 0.00 85 1005.8
20260508095951 32 118 0.0 0.0 0.00 0.00 0.00 85 1005.9
20260508095449 32 119 0.0 0.0 0.00 0.00 0.00 84 1005.9
20260508094946 33 119 0.0 0.0 0.00 0.00 0.00 84 1005.7
20260508094442 33 119 0.0 1.0 0.00 0.00 0.00 84 1005.8
20260508093939 33 118 0.0 0.0 0.00 0.00 0.00 83 1005.8
20260508093436 33 119 0.0 1.0 0.00 0.00 0.00 83 1005.9
20260508092934 33 119 0.0 0.0 0.00 0.00 0.00 83 1005.8
20260508092432 32 119 0.0 1.0 0.00 0.00 0.00 84 1005.9
20260508091930 32 119 1.0 1.0 0.00 0.00 0.00 85 1006.0
20260508091427 32 108 0.0 0.0 0.00 0.00 0.00 85 1006.0
20260508090924 32 103 0.0 0.0 0.00 0.00 0.00 84 1005.8
20260508090423 32 100 0.0 2.0 0.00 0.00 0.00 84 1006.0
20260508085918 32 122 0.0 0.0 0.00 0.00 0.00 84 1006.1
20260508085415 33 122 0.0 1.0 0.00 0.00 0.00 84 1006.1
20260508084911 33 122 0.0 1.0 0.00 0.00 0.00 84 1006.1
20260508084408 33 122 1.0 1.0 0.00 0.00 0.00 83 1006.1
20260508083906 33 122 0.0 0.0 0.00 0.00 0.00 83 1005.9
20260508083403 33 122 0.0 0.0 0.00 0.00 0.00 82 1005.9
20260508082902 33 121 0.0 1.0 0.00 0.00 0.00 83 1005.7
20260508082400 33 124 0.0 0.0 0.00 0.00 0.00 83 1006.0
20260508081858 33 124 0.0 1.0 0.00 0.00 0.00 82 1006.0
20260508081354 33 119 0.0 0.0 0.00 0.00 0.00 82 1005.6
20260508080851 33 119 0.0 0.0 0.00 0.00 0.00 80 1005.9
20260508080350 34 102 0.0 1.0 0.00 0.00 0.00 79 1005.9
20260508075846 35 99 1.0 1.0 0.00 0.00 0.00 75 1006.1
20260508075343 36 137 0.0 0.0 0.00 0.00 0.00 73 1005.9
20260508074841 35 137 0.0 0.0 0.00 0.00 0.00 74 1005.9
20260508074337 35 137 0.0 1.0 0.00 0.00 0.00 76 1005.9
20260508073834 34 137 0.0 0.0 0.00 0.00 0.00 78 1005.8
20260508073332 34 137 1.0 1.0 0.00 0.00 0.00 81 1006.2
20260508072828 33 136 0.0 0.0 0.00 0.00 0.00 79 1006.0
20260508072325 33 136 0.0 0.0 0.00 0.00 0.00 80 1005.9
20260508071822 33 136 0.0 0.0 0.00 0.00 0.00 81 1006.2
20260508071321 32 136 0.0 0.0 0.00 0.00 0.00 81 1006.1
20260508070818 32 136 0.0 0.0 0.00 0.00 0.00 80 1006.2
20260508070316 33 136 0.0 0.0 0.00 0.00 0.00 80 1006.2
20260508065813 33 136 0.0 0.0 0.00 0.00 0.00 80 1006.1
20260508065311 33 136 0.0 0.0 0.00 0.00 0.00 80 1006.4
20260508064809 33 136 0.0 0.0 0.00 0.00 0.00 79 1006.2
20260508064306 34 136 0.0 0.0 0.00 0.00 0.00 79 1006.2
20260508063804 34 136 0.0 0.0 0.00 0.00 0.00 78 1006.4
20260508063302 34 136 0.0 0.0 0.00 0.00 0.00 77 1006.3
20260508062759 35 136 1.0 1.0 0.00 0.00 0.00 78 1006.3
20260508062256 35 136 0.0 1.0 0.00 0.00 0.00 76 1006.3
20260508061753 35 136 0.0 1.0 0.00 0.00 0.00 76 1006.3
20260508061250 36 136 0.0 0.0 0.00 0.00 0.00 76 1006.4
20260508060746 36 136 0.0 0.0 0.00 0.00 0.00 72 1006.5
20260508060245 37 136 0.0 0.0 0.00 0.00 0.00 68 1006.5
20260508055739 37 136 0.0 0.0 0.00 0.00 0.00 67 1006.4
20260508055237 37 136 0.0 0.0 0.00 0.00 0.00 65 1006.4
20260508054733 37 136 0.0 0.0 0.00 0.00 0.00 64 1006.3
20260508054231 37 136 0.0 0.0 0.00 0.00 0.00 64 1006.3
20260508053728 38 137 0.0 0.0 0.00 0.00 0.00 66 1006.4
20260508053225 38 137 0.0 0.0 0.00 0.00 0.00 65 1006.5
20260508052722 39 137 0.0 0.0 0.00 0.00 0.00 64 1006.4
20260508052219 39 137 0.0 0.0 0.00 0.00 0.00 65 1006.7
20260508051716 39 137 0.0 0.0 0.00 0.00 0.00 61 1006.4
20260508051211 40 137 0.0 0.0 0.00 0.00 0.00 60 1006.4
20260508050708 40 137 0.0 0.0 0.00 0.00 0.00 59 1006.4
20260508050206 41 137 0.0 0.0 0.00 0.00 0.00 57 1006.6
20260508045700 42 137 0.0 0.0 0.00 0.00 0.00 56 1006.7
20260508045159 42 137 0.0 0.0 0.00 0.00 0.00 55 1006.6
20260508044656 42 137 0.0 0.0 0.00 0.00 0.00 55 1006.8
20260508044152 42 137 0.0 0.0 0.00 0.00 0.00 55 1006.6
20260508043648 43 137 0.0 0.0 0.00 0.00 0.00 54 1006.5
20260508043146 43 137 0.0 0.0 0.00 0.00 0.00 54 1006.8
20260508042642 43 137 0.0 0.0 0.00 0.00 0.00 54 1006.7
20260508042140 42 137 0.0 0.0 0.00 0.00 0.00 55 1006.6
20260508041636 42 137 0.0 0.0 0.00 0.00 0.00 55 1006.7
20260508041133 43 137 0.0 0.0 0.00 0.00 0.00 53 1006.9
20260508040629 43 137 0.0 0.0 0.00 0.00 0.00 53 1006.8
20260508040127 43 137 0.0 0.0 0.00 0.00 0.00 53 1006.8
20260508035624 42 137 0.0 0.0 0.00 0.00 0.00 54 1006.8
20260508035122 42 137 0.0 0.0 0.00 0.00 0.00 55 1007.0
20260508034618 43 137 0.0 0.0 0.00 0.00 0.00 52 1006.8
20260508034115 44 137 0.0 0.0 0.00 0.00 0.00 51 1006.8
20260508033613 44 137 0.0 0.0 0.00 0.00 0.00 50 1006.9
20260508033111 44 137 0.0 0.0 0.00 0.00 0.00 50 1007.2
20260508032607 44 137 0.0 0.0 0.00 0.00 0.00 50 1006.9
20260508032105 44 137 0.0 0.0 0.00 0.00 0.00 50 1006.9
20260508031602 44 137 0.0 0.0 0.00 0.00 0.00 50 1006.9
20260508031057 45 137 0.0 1.0 0.00 0.00 0.00 49 1006.9
20260508030554 45 137 0.0 0.0 0.00 0.00 0.00 48 1006.9
20260508030052 45 137 0.0 0.0 0.00 0.00 0.00 48 1006.9
20260508025548 45 137 0.0 0.0 0.00 0.00 0.00 48 1006.9
20260508025045 45 137 0.0 0.0 0.00 0.00 0.00 47 1007.0
20260508024541 45 137 0.0 0.0 0.00 0.00 0.00 47 1006.7
20260508024038 45 137 0.0 0.0 0.00 0.00 0.00 46 1006.6
20260508023534 45 137 0.0 0.0 0.00 0.00 0.00 48 1006.9
20260508023032 45 137 0.0 0.0 0.00 0.00 0.00 47 1007.2
20260508022528 46 137 0.0 0.0 0.00 0.00 0.00 46 1006.8
20260508022025 46 137 0.0 0.0 0.00 0.00 0.00 46 1007.0
20260508021521 47 137 0.0 0.0 0.00 0.00 0.00 45 1006.9
20260508021017 48 137 0.0 0.0 0.00 0.00 0.00 43 1006.7
20260508020515 48 137 0.0 1.0 0.00 0.00 0.00 42 1006.9
20260508020012 49 137 0.0 1.0 0.00 0.00 0.00 42 1006.9
20260508015509 49 137 0.0 0.0 0.00 0.00 0.00 41 1006.6
20260508015006 49 137 0.0 1.0 0.00 0.00 0.00 41 1006.8
20260508014503 49 137 0.0 0.0 0.00 0.00 0.00 41 1006.5
20260508013959 50 137 0.0 0.0 0.00 0.00 0.00 42 1006.7
20260508013455 50 137 0.0 0.0 0.00 0.00 0.00 40 1006.6
20260508012952 51 137 0.0 0.0 0.00 0.00 0.00 39 1006.6
20260508012449 51 137 0.0 0.0 0.00 0.00 0.00 39 1006.5
20260508011947 51 156 1.0 1.0 0.00 0.00 0.00 38 1006.5
20260508011445 52 121 0.0 1.0 0.00 0.00 0.00 38 1006.5
20260508010942 52 128 1.0 1.0 0.00 0.00 0.00 38 1006.5
20260508010439 53 146 0.0 1.0 0.00 0.00 0.00 37 1006.4
20260508005936 53 126 0.0 1.0 0.00 0.00 0.00 37 1006.5